Home > Time Zones > World Clock > Weather > Belgium > Spa > Past weeks

Flag for Belgium Weather past 2 weeks in Spa, Belgium

Now
46 °F

Overcast.


Feels Like: 42 °F
Forecast: 40 / 47 °F
Wind: 6 mph from Southwest

Location: Spa / La Sauveniere

Current Time: Dec 23, 2014 at 5:48:48 AM

Latest Report: Dec 23, 2014 at 5:00 AM


Visibility: 16 mi

Pressure: 30.20 "Hg

Humidity: 90%

Dew point: 43 °F

Location of SpaLocation

Historic Weather in Spa — Graph

°F

Spa temperature yesterday

Maximum temperature yesterday: 46 °F (at 11:00 PM)
Minimum temperature yesterday: 40 °F (at 12:00 AM)
Average temperature yesterday: 43 °F

Past Weeks' High & Low Weather Summary

 TemperatureHumidityPressure
High50 °F (Dec 18, 4:00 PM)100% (Dec 8, 8:00 PM)30.49 "Hg (Dec 8, 8:00 PM)
Low29 °F (Dec 15, 3:00 AM)79% (Dec 8, 2:00 PM)29.47 "Hg (Dec 12, 4:00 PM)
Average38 °F94%30.05 "Hg
* Reported Dec 8 4:00 AM — Dec 23 4:00 AM, Spa, Weather by CustomWeather, © 2014

Note: Actual official high and low records may vary slightly from our data, if they occured in-between our weather recording intervals... More about our weather records

Advertising

Spa weather history for previous 24 hours

 ConditionsComfort  
Time TempWeatherWind HumidityBarometerVisibility
4:00 AM
Dec 23
46 °FOvercast.7 mph88%30.21 "Hg17 mi
3:00 AM46 °FOvercast.8 mph88%30.21 "Hg22 mi
2:00 AM46 °FLow clouds.7 mph94%30.20 "Hg13 mi
1:00 AM46 °FLow clouds.7 mph94%30.20 "Hg12 mi
12:00 AM46 °FDrizzle. Low clouds.7 mph95%30.19 "Hg9 mi
11:00 PM
Dec 22
46 °FDrizzle. Low clouds.7 mph95%30.19 "Hg7 mi
9:00 PM46 °FDrizzle. Low clouds.7 mph96%30.19 "Hg2 mi
8:00 PM46 °FDrizzle. Low clouds.7 mph95%30.20 "Hg2 mi
7:00 PM46 °FLight rain. Low clouds.8 mph96%30.20 "Hg2 mi
4:00 PM45 °FLight rain. Low clouds.9 mph95%30.19 "Hg2 mi
3:00 PM44 °FFog.9 mph95%30.19 "Hg3 mi
2:00 PM44 °FLow clouds.8 mph96%30.19 "Hg7 mi
1:00 PM43 °FLow clouds.9 mph94%30.22 "Hg11 mi
12:00 PM42 °FDrizzle. Low clouds.8 mph95%30.24 "Hg3 mi
11:00 AM41 °FDrizzle. Low clouds.7 mph94%30.26 "Hg2 mi
8:00 AM40 °FLow clouds.8 mph96%30.25 "HgN/A
7:00 AM41 °FLow clouds.8 mph96%30.26 "HgN/A
6:00 AM41 °FFog.8 mph97%30.27 "Hg2 mi
5:00 AM41 °FLow clouds.8 mph97%30.26 "HgN/A
Weather by CustomWeather, © 2014

See weather overviewHow to use our weather pages